Location: Aalen
(48.8330°N, 10.1000°E)
Time: 01:10:05
(UTC+02:00)

Transit 4A - Pass Details

Date: 10 August 2021
Orbit: 870 x 974 km, 66.8° (Epoch: 26 September)

Event Time Altitude Azimuth Distance (km) Brightness Sun altitude
Rises 07:19:57 0° 325° (NW) 3,477 10.7 10.8°
Reaches altitude 10° 07:22:26 10° 327° (NNW) 2,542 10.0 11.2°
Maximum altitude 07:28:19 73° 52° (NE) 933 8.4 12.1°
Drops below altitude 10° 07:34:18 10° 138° (SE) 2,585 10.8 13.1°
Sets 07:36:50 0° 140° (SE) 3,538 11.4 13.5°
